OneWeb SL0445

operational
NORAD ID: 51639 Int'l Des: 2022-012 Owner: ONEWEBN Country: UK Constellation: oneweb
LEOCIRCULARPOLARONEWEB_TYPE

About OneWeb SL0445

Description loading...

Live Position

Loading 3D Globe...

Upcoming Passes

Altitude History

Altitude vs Time

uPlot chart will show altitude changes over time

Two-Line Element Set

1 51639U 22012T 26101.30480023 -.00000563 00000-0 -16500-2 0 9991
2 51639 87.8839 49.5587 0001929 73.4457 286.6882 13.10380305200587
Epoch: Apr 11, 2026 • Age: 23 hours

Current Status

Altitude 1240.7 km
Velocity 7.23 km/s
Sub-Earth Point -45.63°S, 65.75°W
Launch Date Feb 10, 2022
Age 4.1 years
Type internet

Technical Details

Classification Payload
Mass 148.00 kg
Dry Mass 140.00 kg
Total Mass 148.00 kg
Length 1.30 m
Diameter 1.00 m
Span 5.00 m
Shape Trapezoid+2 pan
Manufacturer ONEWUS
Bus Type ARROW
Phase Status In Orbit
Owner/State ONEWEBN/UK

Large Constellations

Loading constellations...